天目一号 22星 (TIANMU-1 22)

导读

TIANMU-1 22(天目一号22星)是中国研制的气象掩星探测卫星,于2023年12月27日在酒泉卫星发射中心,由快舟一号甲运载火箭以“一箭四星”方式发射入轨,属于天目一号掩星探测星座组网星。该卫星主要用于获取全球大气环境要素信息,组网完成后可实现全球全天候多圈层一体化探测,为数值天气预报、气象预报提供数据支撑,已正式进入业务化应用阶段。

基本信息
目录编号:
58663
目录名称:
TIANMU-1 22
国际标识:
2023-208D
轨道中心:
EARTH
卫星名称:
天目一号 22星
卫星全名:
天目一号 22星 (TIANMU-1 22)
卫星状态:
在轨 (已飞行943 天)
发射日期:
2023-12-27 UTC
国别 :
中国 (CN)
星等 :
--
轨道信息
数据来源 国际轨道数据 AOE轨道数据
星历时间 2026-07-27T22:04:50+0800
8小时前
查看轨道信息
2026-07-26T02:00:00+0800
2天前
查看轨道信息
半长轴 6849.227km 6849.289km
偏心率 0.0003872 0.0004042
轨道倾角 97.453° 97.453°
近地点辐角 172.465° 177.528°
升交点赤经 325.016° 323.168°
平近点角 187.665° 142.299°
近地点 468.437km 468.383km
远地点 473.743km 473.921km
周期 94.020分钟 94.022分钟
每日圈数 15.315827 15.31562
详细信息
覆盖范围:
全球
运营商:
中国航天科工集团有限公司
运营商所在国:
中国
制造商(研发单位):
中国航天科工集团有限公司
制造商所在国:
中国
使用方式:
暂无
卫星简介
天目一号气象星座,是由中国航天科工集团落户西部(重庆)科学城西永微电园企业研制,主要用于获取全球大气环境要素信息,建成后可实现全球全天候海洋、大气层、电离层的立体化、一体化探测。该卫星仍在工作。
2D轨道图
3D轨道图
轨道高度分析图
轨道倾角分析图
轨道综合分析图
查看轨道综合分析图